sat.trackr.live / text

‹ back to catalog

OPTUS 10

NORAD 40146 · 2014-054A

PAYLOAD ACTIVE UNKNOWN

§ Identity

Operator
Country
AUS
Launch date
2014-09-11
Launch site
FRGUI
Launch vehicle
Mass (kg)
RCS (m²)
51.58

Purposes: comms

External: N2YO · Heavens-Above · Gunter

§ Orbital elements

Epoch: 2026-05-25T02:46:20.902080Z

Period
1,436.11 min
Inclination
0.0443°
Eccentricity
0.0002055
Mean motion
1.00271040 rev/d
Perigee alt
35,778.1 km
Apogee alt
35,795.5 km
Semi-major
42,164.9 km
B*
0.0000e+0
RAAN
82.0400°
Arg perigee
338.5303°
Mean anomaly
19.7369°
Rev number
4,279

§ Raw data

OPTUS 101 40146U 14054A   26145.11551970 -.00000149  00000+0  00000+0 0  99992 40146   0.0443  82.0400 0002055 338.5303  19.7369  1.00271040 42791

JSON: /api/v1/satellites/40146 · /tle

For live sub-satellite position, see the globe view (requires WebGL).

§ Visibility from observer

Set your observer location to see the next 7 days of passes ≥ 10°. The values pass through the URL so the page stays shareable.

No JS? Fill the form by hand. The geolocation button needs JavaScript.